When you browse on this site, cookies collect data to enhance your experience and personalize the content and advertising you see.
Visit our Privacy Policy to learn more. By continuing to use the site, you agree to this use of cookies and data.
  • In Romania
  • List of Countries
  • For 7 days
  • Water Temperature
  • Satellite Maps
  • Weather Map
  • Weather Widgets
  • user-avatar
    Login

    Hourly Weather Malaya Pesochnya

    Today, 23 January, Wednesday

    Time Temperature Precipitation Wind Pressure Humidity
    00:00 -21°C° 0 mm 2 mps 747 mmHg 97%
    01:00 -21°C° 0 mm 2 mps 747 mmHg 97%
    02:00 -23°C° 0 mm 2 mps 747 mmHg 96%
    03:00 -23°C° 0 mm 2 mps 747 mmHg 96%
    04:00 -23°C° 0 mm 2 mps 747 mmHg 95%
    05:00 -24°C° 0 mm 2 mps 747 mmHg 95%
    06:00 -24°C° 0 mm 2 mps 747 mmHg 95%
    07:00 -24°C° 0 mm 2 mps 747 mmHg 95%
    08:00 -24°C° 0 mm 2 mps 747 mmHg 95%
    09:00 -21°C° 0 mm 2 mps 747 mmHg 94%
    10:00 -20°C° 0 mm 2 mps 747 mmHg 93%
    11:00 -18°C° 0 mm 2 mps 747 mmHg 93%
    12:00 -18°C° 0 mm 2 mps 747 mmHg 93%
    13:00 -17°C° 0 mm 2 mps 746 mmHg 93%
    14:00 -16°C° 0 mm 2 mps 746 mmHg 94%
    15:00 -16°C° 0 mm 2 mps 746 mmHg 95%
    16:00 -16°C° 0 mm 2 mps 746 mmHg 95%
    17:00 -16°C° 0 mm 2 mps 746 mmHg 96%
    18:00 -15°C° 0 mm 2 mps 746 mmHg 96%
    19:00 -15°C° 0 mm 2 mps 746 mmHg 96%
    20:00 -15°C° 0 mm 3 mps 746 mmHg 95%
    21:00 -15°C° 0 mm 3 mps 746 mmHg 95%
    22:00 -15°C° 0 mm 3 mps 745 mmHg 95%
    23:00 -15°C° 0 mm 3 mps 745 mmHg 94%

    Tomorrow, 24 January, Thursday

    Time Temperature Precipitation Wind Pressure Humidity
    00:00 -16°C° 0 mm 3 mps 745 mmHg 95%
    01:00 -16°C° 0 mm 3 mps 745 mmHg 95%
    02:00 -17°C° 0 mm 3 mps 745 mmHg 95%
    03:00 -16°C° 0 mm 2 mps 745 mmHg 96%
    04:00 -17°C° 0 mm 2 mps 745 mmHg 96%
    05:00 -17°C° 0 mm 2 mps 745 mmHg 97%
    06:00 -18°C° 0 mm 2 mps 745 mmHg 97%
    07:00 -18°C° 0 mm 2 mps 744 mmHg 97%
    08:00 -19°C° 0 mm 2 mps 744 mmHg 97%
    09:00 -17°C° 0 mm 2 mps 744 mmHg 95%
    10:00 -16°C° 0 mm 2 mps 745 mmHg 93%
    11:00 -15°C° 0 mm 2 mps 745 mmHg 91%
    12:00 -14°C° 0 mm 2 mps 745 mmHg 91%
    13:00 -13°C° 0 mm 2 mps 745 mmHg 91%
    14:00 -12°C° 0 mm 2 mps 745 mmHg 91%
    15:00 -13°C° 0 mm 2 mps 745 mmHg 93%
    16:00 -14°C° 0 mm 2 mps 745 mmHg 94%
    17:00 -12°C° 0 mm 1 mps 745 mmHg 96%
    18:00 -12°C° 0 mm 1 mps 746 mmHg 96%
    19:00 -12°C° 0 mm 1 mps 746 mmHg 97%
    20:00 -13°C° 0 mm 1 mps 747 mmHg 97%
    21:00 -13°C° 0 mm 1 mps 747 mmHg 98%
    22:00 -13°C° 0 mm 1 mps 748 mmHg 98%
    23:00 -14°C° 0 mm 1 mps 748 mmHg 98%

    Day after tomorrow, 25 January, Friday

    Time Temperature Precipitation Wind Pressure Humidity
    00:00 -15°C° 0 mm 1 mps 749 mmHg 98%
    01:00 -15°C° 0 mm 1 mps 749 mmHg 98%
    02:00 -16°C° 0 mm 1 mps 750 mmHg 99%
    03:00 -17°C° 0 mm 1 mps 750 mmHg 99%
    04:00 -18°C° 0 mm 1 mps 750 mmHg 99%
    05:00 -19°C° 0 mm 1 mps 750 mmHg 99%
    06:00 -19°C° 0 mm 1 mps 751 mmHg 99%
    07:00 -20°C° 0 mm 1 mps 751 mmHg 98%
    08:00 -21°C° 0 mm 1 mps 752 mmHg 98%
    09:00 -19°C° 0 mm 1 mps 752 mmHg 95%
    10:00 -17°C° 0 mm 1 mps 753 mmHg 92%
    11:00 -16°C° 0 mm 0 mps 753 mmHg 89%
    12:00 -15°C° 0 mm 1 mps 753 mmHg 90%
    13:00 -15°C° 0 mm 1 mps 753 mmHg 90%
    14:00 -14°C° 0 mm 1 mps 753 mmHg 91%
    15:00 -16°C° 0 mm 1 mps 754 mmHg 92%
    16:00 -17°C° 0 mm 1 mps 754 mmHg 94%
    17:00 -18°C° 0 mm 1 mps 754 mmHg 95%
    18:00 -19°C° 0 mm 1 mps 754 mmHg 96%
    19:00 -19°C° 0 mm 1 mps 755 mmHg 96%
    20:00 -19°C° 0 mm 1 mps 755 mmHg 97%
    21:00 -20°C° 0 mm 1 mps 755 mmHg 97%
    22:00 -20°C° 0 mm 1 mps 755 mmHg 97%
    23:00 -20°C° 0 mm 1 mps 755 mmHg 97%

    26 January, Saturday

    Time Temperature Precipitation Wind Pressure Humidity
    00:00 -20°C° 0 mm 1 mps 755 mmHg 97%
    01:00 -20°C° 0 mm 1 mps 755 mmHg 97%
    02:00 -21°C° 0 mm 1 mps 755 mmHg 97%
    03:00 -21°C° 0 mm 1 mps 755 mmHg 97%
    04:00 -21°C° 0 mm 1 mps 755 mmHg 97%
    05:00 -21°C° 0 mm 1 mps 755 mmHg 97%
    06:00 -21°C° 0 mm 1 mps 755 mmHg 97%
    07:00 -21°C° 0 mm 1 mps 755 mmHg 97%
    08:00 -22°C° 0 mm 1 mps 755 mmHg 97%
    09:00 -20°C° 0 mm 1 mps 755 mmHg 95%
    10:00 -19°C° 0 mm 1 mps 755 mmHg 94%
    11:00 -17°C° 0 mm 1 mps 755 mmHg 92%
    12:00 -16°C° 0 mm 1 mps 755 mmHg 92%
    13:00 -16°C° 0 mm 1 mps 755 mmHg 92%
    14:00 -15°C° 0 mm 1 mps 755 mmHg 93%
    15:00 -17°C° 0 mm 1 mps 755 mmHg 95%
    16:00 -18°C° 0 mm 1 mps 755 mmHg 96%
    17:00 -20°C° 0 mm 1 mps 755 mmHg 98%
    18:00 -21°C° 0 mm 1 mps 755 mmHg 98%
    19:00 -21°C° 0 mm 1 mps 755 mmHg 98%
    20:00 -22°C° 0 mm 1 mps 755 mmHg 98%
    21:00 -22°C° 0 mm 1 mps 755 mmHg 97%
    22:00 -22°C° 0 mm 1 mps 755 mmHg 97%
    23:00 -23°C° 0 mm 1 mps 755 mmHg 96%

    27 January, Sunday

    Time Temperature Precipitation Wind Pressure Humidity
    00:00 -23°C° 0 mm 1 mps 755 mmHg 96%
    01:00 -23°C° 0 mm 0 mps 755 mmHg 95%
    02:00 -23°C° 0 mm 0 mps 755 mmHg 94%
    03:00 -24°C° 0 mm 0 mps 755 mmHg 93%
    04:00 -24°C° 0 mm 0 mps 755 mmHg 93%
    05:00 -24°C° 0 mm 0 mps 755 mmHg 92%
    06:00 -24°C° 0 mm 0 mps 755 mmHg 92%
    07:00 -24°C° 0 mm 0 mps 755 mmHg 92%
    08:00 -24°C° 0 mm 1 mps 755 mmHg 92%
    09:00 -23°C° 0 mm 0 mps 755 mmHg 91%
    10:00 -21°C° 0 mm 0 mps 755 mmHg 89%
    11:00 -19°C° 0 mm 0 mps 756 mmHg 87%
    12:00 -18°C° 0 mm 0 mps 756 mmHg 88%
    13:00 -18°C° 0 mm 0 mps 755 mmHg 88%
    14:00 -17°C° 0 mm 0 mps 755 mmHg 89%
    15:00 -19°C° 0 mm 0 mps 755 mmHg 91%
    16:00 -21°C° 0 mm 0 mps 755 mmHg 94%
    17:00 -22°C° 0 mm 1 mps 755 mmHg 96%
    18:00 -22°C° 0 mm 1 mps 755 mmHg 97%
    19:00 -23°C° 0 mm 1 mps 756 mmHg 97%
    20:00 -23°C° 0 mm 1 mps 756 mmHg 98%
    21:00 -23°C° 0 mm 1 mps 756 mmHg 98%
    22:00 -24°C° 0 mm 1 mps 756 mmHg 98%
    23:00 -24°C° 0 mm 1 mps 756 mmHg 99%

    28 January, Monday

    Time Temperature Precipitation Wind Pressure Humidity
    00:00 -24°C° 0 mm 1 mps 756 mmHg 99%
    01:00 -24°C° 0 mm 1 mps 756 mmHg 99%
    02:00 -25°C° 0 mm 1 mps 756 mmHg 99%
    03:00 -25°C° 0 mm 1 mps 756 mmHg 99%
    04:00 -25°C° 0 mm 1 mps 756 mmHg 99%
    05:00 -25°C° 0 mm 1 mps 756 mmHg 99%
    06:00 -25°C° 0 mm 1 mps 756 mmHg 99%
    07:00 -25°C° 0 mm 1 mps 757 mmHg 98%
    08:00 -25°C° 0 mm 1 mps 757 mmHg 98%
    09:00 -24°C° 0 mm 1 mps 757 mmHg 97%
    10:00 -22°C° 0 mm 1 mps 757 mmHg 96%
    11:00 -20°C° 0 mm 1 mps 757 mmHg 95%
    12:00 -21°C° 0 mm 2 mps 757 mmHg 94%
    13:00 -21°C° 0 mm 2 mps 756 mmHg 93%
    14:00 -20°C° 0 mm 2 mps 756 mmHg 92%
    15:00 -20°C° 0 mm 2 mps 756 mmHg 93%
    16:00 -21°C° 0 mm 2 mps 756 mmHg 94%
    17:00 -23°C° 0 mm 2 mps 756 mmHg 95%
    18:00 -23°C° 0 mm 2 mps 756 mmHg 93%
    19:00 -21°C° 0 mm 2 mps 755 mmHg 92%
    20:00 -21°C° 0 mm 2 mps 755 mmHg 91%
    21:00 -23°C° 0 mm 3 mps 755 mmHg 89%
    22:00 -23°C° 0 mm 3 mps 755 mmHg 88%
    23:00 -22°C° 0 mm 3 mps 754 mmHg 86%
    Show more